FW2050 Weather Reports


time (UTC)temp
F
wind
direction
speed
knots
gust
knots
rain 1hr
in
rain 24hr
in
rain mn
in
humidity
%
barometer
mb
20260507010007 54 287 0.9 3.5 0.06 0.28 0.28 95 1005.0
20260507004510 54 262 1.7 7.8 0.06 0.27 0.27 94 1004.9
20260507003007 56 281 4.3 8.7 0.05 0.25 0.25 93 1004.7
20260507001503 58 281 0.9 2.6 0.02 0.22 0.22 95 1004.3
20260507000003 58 272 0.9 2.6 0.02 0.22 0.22 95 1004.1
20260506234506 58 285 0.9 3.5 0.01 0.21 0.21 92 1004.2
20260506233002 59 221 1.7 6.1 0.00 0.20 0.20 91 1004.0
20260506231501 60 240 2.6 5.2 0.00 0.20 0.20 90 1004.0
20260506230100 60 233 2.6 6.1 0.00 0.20 0.20 90 1003.9
20260506224559 60 181 1.7 8.7 0.00 0.20 0.20 90 1003.9
20260506223058 60 226 3.5 8.7 0.00 0.20 0.20 90 1004.1
20260506221557 60 207 2.6 7.0 0.00 0.20 0.20 90 1004.1
20260506220107 60 224 3.5 8.7 0.00 0.20 0.20 90 1004.1
20260506214555 60 210 3.5 7.0 0.00 0.20 0.20 91 1004.2
20260506213100 59 144 2.6 12.2 0.00 0.20 0.20 91 1004.4
20260506211551 58 119 1.7 3.5 0.00 0.20 0.20 93 1004.5
20260506210100 58 99 1.7 5.2 0.01 0.20 0.20 95 1004.5
20260506204551 58 97 0.0 2.6 0.04 0.20 0.20 94 1004.6
20260506203135 59 103 0.0 0.9 0.07 0.20 0.20 94 1004.8
20260506201547 59 291 0.0 2.6 0.08 0.20 0.20 93 1005.1
20260506200048 59 250 0.0 2.6 0.08 0.19 0.19 92 1005.1
20260506194541 60 238 0.9 3.5 0.06 0.16 0.16 91 1005.3
20260506193039 60 255 0.9 4.3 0.03 0.13 0.13 90 1005.4
20260506191537 60 167 1.7 7.0 0.04 0.12 0.12 91 1005.7
20260506190045 60 143 0.9 6.1 0.04 0.11 0.11 91 1005.6
20260506184541 60 212 2.6 4.3 0.06 0.10 0.10 92 1005.9
20260506183034 60 160 0.9 2.6 0.07 0.10 0.10 93 1005.9
20260506181534 60 116 0.0 0.9 0.07 0.08 0.08 92 1006.2
20260506180033 60 231 0.0 0.9 0.07 0.07 0.07 92 1006.4
20260506174530 60 279 0.0 1.7 0.04 0.04 0.04 90 1006.5
20260506173037 61 192 0.0 2.6 0.03 0.03 0.03 87 1006.3
20260506171528 61 130 0.9 2.6 0.01 0.01 0.01 85 1006.2
20260506170027 61 236 0.0 0.9 0.00 0.00 0.00 83 1006.1
20260506164526 61 236 0.0 0.9 0.00 0.00 0.00 83 1006.4
20260506163040 61 236 0.0 0.9 0.00 0.00 0.00 83 1006.5
20260506161526 62 108 0.0 0.0 0.00 0.00 0.00 82 1006.7
20260506160023 62 108 0.0 0.9 0.00 0.00 0.00 82 1007.4
20260506154529 61 108 0.0 0.9 0.00 0.00 0.00 81 1007.8
20260506153017 61 113 0.0 0.9 0.00 0.00 0.00 82 1007.9
20260506151518 61 110 0.9 0.9 0.00 0.00 0.00 81 1008.0
20260506150016 62 178 0.0 0.9 0.00 0.00 0.00 80 1007.9
20260506144516 61 262 0.0 0.9 0.00 0.00 0.00 81 1008.0
20260506143015 61 263 0.0 0.9 0.00 0.00 0.00 81 1007.8
20260506141510 61 102 0.0 0.9 0.00 0.00 0.00 81 1007.8
20260506140017 60 102 0.0 1.7 0.00 0.00 0.00 81 1007.6
20260506134507 60 94 0.0 0.9 0.00 0.00 0.00 82 1007.8
20260506133007 60 94 0.0 0.9 0.00 0.00 0.00 82 1008.2
20260506131510 59 94 0.0 0.9 0.00 0.00 0.00 82 1008.1
20260506130007 59 120 0.0 0.9 0.00 0.00 0.00 82 1008.1
20260506124507 59 110 0.0 1.7 0.00 0.00 0.00 81 1008.1
20260506123008 59 121 0.0 0.9 0.00 0.00 0.00 81 1008.1
20260506121505 58 133 0.0 0.9 0.00 0.00 0.00 82 1008.3
20260506120104 57 133 0.0 0.9 0.00 0.00 0.00 86 1008.3
20260506114503 56 133 0.0 0.9 0.00 0.00 0.00 88 1008.1
20260506113003 55 98 0.0 0.0 0.00 0.00 0.00 90 1008.3
20260506111502 55 98 0.0 1.7 0.00 0.00 0.00 90 1008.3
20260506110002 55 94 0.0 1.7 0.00 0.00 0.00 90 1008.5
20260506104608 55 210 0.9 2.6 0.00 0.00 0.00 90 1009.0
20260506103105 55 153 0.0 1.7 0.00 0.00 0.00 90 1008.6
20260506101618 54 98 0.0 2.6 0.00 0.00 0.00 90 1008.4
20260506100055 54 107 0.0 0.9 0.00 0.00 0.00 91 1008.2
20260506094556 55 108 0.9 2.6 0.00 0.00 0.00 90 1008.0
20260506093051 55 122 0.0 0.9 0.00 0.00 0.00 88 1008.3
20260506091546 56 352 0.0 0.9 0.00 0.00 0.00 85 1008.1
20260506090056 57 331 0.0 0.9 0.00 0.00 0.00 83 1008.2
20260506084551 57 284 0.0 1.7 0.00 0.00 0.00 83 1008.3
20260506083040 59 264 0.9 4.3 0.00 0.00 0.00 79 1008.2
20260506081543 58 274 1.7 2.6 0.00 0.00 0.00 83 1008.2
20260506073038 58 105 0.0 0.9 0.00 0.00 0.00 84 1008.0
20260506071538 57 96 0.0 0.9 0.00 0.00 0.00 87 1007.9
20260506061535 59 267 0.0 0.9 0.00 0.00 0.00 84 1007.9
20260506044523 57 127 0.0 0.9 0.00 0.00 0.00 89 1007.8
20260506043022 56 194 0.0 0.9 0.00 0.00 0.00 89 1007.8
20260506041532 57 98 0.0 0.9 0.00 0.00 0.00 89 1007.8
20260506040016 57 330 0.0 1.7 0.00 0.00 0.00 89 1008.0
20260506034523 57 269 0.0 0.9 0.00 0.00 0.00 88 1007.8
20260506033017 57 278 0.0 0.9 0.00 0.00 0.00 88 1008.1
20260506031515 57 278 0.0 0.0 0.00 0.00 0.00 88 1007.8
20260506030016 58 129 0.0 0.9 0.00 0.00 0.00 87 1007.8
20260506024513 58 169 0.0 0.0 0.00 0.00 0.00 87 1007.9
20260506023013 59 143 0.0 0.9 0.00 0.00 0.00 85 1007.6
20260506021512 60 128 0.0 0.9 0.00 0.00 0.00 82 1007.6
20260506020012 61 128 0.0 0.9 0.00 0.00 0.00 79 1007.9
20260506014510 62 127 0.0 1.7 0.00 0.00 0.00 78 1007.9
20260506013016 63 217 0.0 0.9 0.00 0.00 0.00 76 1008.0
20260506011516 62 197 0.0 1.7 0.00 0.00 0.00 79 1007.9